Flag for United Kingdom Weather past 2 weeks in Swanage, England, United Kingdom

Now
45 °F

Clear.


Feels Like: 41 °F
Forecast: 43 / 58 °F
Wind: 7 mph from Northeast

Location: Bournemouth Airport


UV Index: 3 (Moderate)

Visibility: 10 mi


Pressure: 29.95 "Hg

Humidity: 76%

Dew point: 37 °F

Location of SwanageLocation

Historic Weather in Swanage

°F

Swanage temperature yesterday

Maximum temperature yesterday: 111 °F (at 7:20 AM)
Minimum temperature yesterday: 36 °F (at 4:50 AM)
Average temperature yesterday: 49 °F

Past Weeks' High & Low Weather Summary

 TemperatureHumidityPressure
High111 °F (Apr 19, 7:20 AM)100% (Apr 5, 1:20 AM)30.42 "Hg (Apr 5, 1:20 AM)
Low34 °F (Apr 9, 4:50 AM)7% (Apr 19, 7:20 AM)29.68 "Hg (Apr 7, 3:50 PM)
Average51 °F76%30.13 "Hg
* Reported Apr 4 11:20 PM — Apr 19 11:20 PM, Swanage, Weather by CustomWeather, © 2014

Note: Actual official high and low records may vary slightly from our data, if they occured in-between our weather recording intervals... More about our weather records

Advertising

Historic Weather Conditions — Data for Previous 24 hours

 ConditionsComfort  
Time TempWeatherWind HumidityBarometerVisibility
11:20 PM
Apr 19
45 °FClear.7 mph76%29.95 "Hg10 mi
10:50 PM45 °FClear.8 mph76%29.95 "Hg10 mi
10:20 PM43 °FPassing clouds.6 mph87%29.95 "HgN/A
9:50 PM45 °FPassing clouds.5 mph81%29.95 "HgN/A
9:20 PM46 °FPassing clouds.3 mph82%29.98 "HgN/A
8:20 PM48 °FPartly sunny.1 mph76%29.98 "HgN/A
7:50 PM50 °FPartly sunny.5 mph71%29.95 "HgN/A
7:20 PM50 °FPassing clouds.5 mph76%29.95 "HgN/A
6:50 PM52 °FPassing clouds.7 mph72%29.95 "HgN/A
6:20 PM52 °FPassing clouds.6 mph67%29.98 "HgN/A
5:50 PM52 °FPassing clouds.7 mph62%29.98 "HgN/A
4:50 PM54 °FPassing clouds.6 mph58%29.98 "HgN/A
4:20 PM52 °FScattered clouds.7 mph62%29.98 "HgN/A
3:50 PM52 °FPartly sunny.7 mph62%29.98 "HgN/A
3:20 PM54 °FPartly sunny.6 mph51%30.01 "HgN/A
2:50 PM54 °FScattered clouds.6 mph54%30.01 "HgN/A
2:20 PM54 °FScattered clouds.5 mph51%30.01 "HgN/A
1:50 PM54 °FScattered clouds.8 mph54%30.04 "HgN/A
1:20 PM52 °FPartly sunny.7 mph58%30.04 "HgN/A
12:50 PM50 °FPartly sunny.7 mph62%30.04 "HgN/A
12:20 PM50 °FPartly sunny.8 mph58%30.04 "HgN/A
11:50 AM50 °FPartly sunny.10 mph58%30.07 "HgN/A
11:20 AM50 °FScattered clouds.10 mph54%30.07 "HgN/A
10:50 AM48 °FPassing clouds.12 mph58%30.07 "HgN/A
10:20 AM50 °FPassing clouds.10 mph58%30.07 "HgN/A
9:50 AM48 °FPassing clouds.12 mph62%30.07 "HgN/A
9:20 AM46 °FPassing clouds.14 mph62%30.07 "HgN/A
8:50 AM45 °FPassing clouds.10 mph66%30.07 "HgN/A
8:20 AM43 °FPartly sunny.8 mph76%30.09 "HgN/A
7:50 AM39 °FScattered clouds.7 mph81%30.09 "HgN/A
7:20 AM111 °FPassing clouds.8 mph7%30.09 "HgN/A
6:20 AM37 °FPassing clouds.6 mph87%30.07 "HgN/A
5:50 AM36 °FClear.3 mph87%30.07 "Hg10 mi
4:50 AM36 °FClear.5 mph93%30.07 "Hg10 mi
Weather by CustomWeather, © 2014

See weather overview